| time (UTC) | temp F | wind direction | speed knots | gust knots | rain 1hr in | rain 24hr in | rain mn in | humidity % | barometer mb |
| 20260906100033 | 63 | 109 | 0.0 | 0.9 | 0.00 | 0.00 | 0.00 | 95 | 1017.5 |
| 20260906094516 | 64 | 109 | 0.0 | 0.9 | 0.00 | 0.00 | 0.00 | 95 | 1017.5 |
| 20260906093006 | 64 | 109 | 0.0 | 0.0 | 0.00 | 0.00 | 0.00 | 95 | 1017.5 |
| 20260906091553 | 64 | 109 | 0.0 | 0.9 | 0.00 | 0.00 | 0.00 | 95 | 1017.4 |
| 20260906090045 | 65 | 109 | 0.0 | 0.9 | 0.00 | 0.00 | 0.00 | 94 | 1017.2 |
| 20260906084533 | 65 | 109 | 0.0 | 1.7 | 0.00 | 0.00 | 0.00 | 94 | 1017.3 |
| 20260906083019 | 66 | 52 | 0.0 | 3.5 | 0.00 | 0.00 | 0.00 | 93 | 1017.1 |
| 20260906081512 | 66 | 62 | 0.0 | 2.6 | 0.00 | 0.00 | 0.00 | 93 | 1017.2 |
| 20260906080109 | 67 | 80 | 0.0 | 2.6 | 0.00 | 0.00 | 0.00 | 93 | 1017.1 |
| 20260906080002 | 67 | 80 | 0.0 | 2.6 | 0.00 | 0.00 | 0.00 | 93 | 1017.1 |
| 20260906074553 | 68 | 137 | 0.9 | 2.6 | 0.00 | 0.00 | 0.00 | 93 | 1017.1 |
| 20260906073046 | 68 | 192 | 0.0 | 1.7 | 0.00 | 0.00 | 0.00 | 92 | 1017.2 |
| 20260906071534 | 68 | 196 | 0.9 | 2.6 | 0.00 | 0.00 | 0.00 | 92 | 1017.1 |
| 20260906070023 | 68 | 73 | 0.0 | 3.5 | 0.00 | 0.01 | 0.00 | 91 | 1017.0 |
| 20260906064522 | 69 | 40 | 0.0 | 2.6 | 0.00 | 0.01 | 0.00 | 91 | 1017.0 |
| 20260906063004 | 69 | 142 | 0.9 | 5.2 | 0.00 | 0.01 | 0.00 | 91 | 1017.1 |
| 20260906061556 | 70 | 127 | 0.9 | 3.5 | 0.00 | 0.01 | 0.00 | 90 | 1017.1 |
| 20260906054529 | 71 | 43 | 1.7 | 5.2 | 0.00 | 0.01 | 0.00 | 90 | 1016.6 |
| 20260906053023 | 71 | 165 | 0.0 | 3.5 | 0.00 | 0.01 | 0.00 | 90 | 1016.6 |
| 20260906051516 | 71 | 104 | 1.7 | 5.2 | 0.00 | 0.01 | 0.00 | 91 | 1016.5 |
| 20260906050014 | 71 | 124 | 0.0 | 1.7 | 0.00 | 0.01 | 0.00 | 90 | 1016.3 |
| 20260906044558 | 71 | 126 | 0.0 | 1.7 | 0.00 | 0.01 | 0.00 | 90 | 1016.3 |
| 20260906043047 | 71 | 128 | 0.0 | 1.7 | 0.00 | 0.01 | 0.00 | 89 | 1016.3 |
| 20260906041537 | 72 | 120 | 0.0 | 1.7 | 0.00 | 0.01 | 0.00 | 89 | 1016.3 |
| 20260906040034 | 72 | 121 | 0.9 | 2.6 | 0.00 | 0.01 | 0.01 | 89 | 1016.2 |
| 20260906034506 | 72 | 16 | 0.9 | 4.3 | 0.00 | 0.01 | 0.01 | 89 | 1016.0 |
| 20260906033055 | 72 | 321 | 0.9 | 4.3 | 0.00 | 0.01 | 0.01 | 89 | 1015.9 |
| 20260906031613 | 72 | 15 | 0.9 | 4.3 | 0.00 | 0.01 | 0.01 | 88 | 1015.8 |
| 20260906030050 | 72 | 30 | 0.0 | 1.7 | 0.00 | 0.01 | 0.01 | 88 | 1015.9 |
| 20260906024551 | 72 | 30 | 0.0 | 3.5 | 0.00 | 0.01 | 0.01 | 88 | 1016.0 |
| 20260906023038 | 72 | 77 | 0.0 | 4.3 | 0.00 | 0.01 | 0.01 | 88 | 1015.8 |
| 20260906021523 | 72 | 303 | 0.0 | 3.5 | 0.00 | 0.01 | 0.01 | 88 | 1015.9 |
| 20260906020013 | 72 | 61 | 0.0 | 2.6 | 0.00 | 0.01 | 0.01 | 88 | 1015.6 |
| 20260906014510 | 72 | 119 | 0.9 | 3.5 | 0.00 | 0.01 | 0.01 | 87 | 1015.4 |
| 20260906013054 | 72 | 135 | 0.0 | 6.1 | 0.00 | 0.01 | 0.01 | 88 | 1015.4 |
| 20260906011542 | 72 | 76 | 0.9 | 7.8 | 0.00 | 0.01 | 0.01 | 88 | 1015.2 |
| 20260906010036 | 72 | 165 | 1.7 | 7.0 | 0.00 | 0.01 | 0.01 | 87 | 1015.1 |
| 20260906004525 | 73 | 128 | 0.0 | 7.0 | 0.00 | 0.01 | 0.01 | 88 | 1015.1 |
| 20260906003023 | 73 | 115 | 2.6 | 7.0 | 0.00 | 0.01 | 0.01 | 88 | 1014.9 |
| 20260906001513 | 74 | 61 | 0.9 | 3.5 | 0.00 | 0.01 | 0.01 | 87 | 1014.6 |
| 20260906000052 | 75 | 207 | 0.9 | 9.6 | 0.00 | 0.01 | 0.01 | 87 | 1014.3 |
| 20260905234535 | 76 | 359 | 1.7 | 7.0 | 0.00 | 0.01 | 0.01 | 85 | 1014.3 |
| 20260905233023 | 77 | 304 | 2.6 | 10.4 | 0.00 | 0.01 | 0.01 | 84 | 1014.0 |
| 20260905231514 | 79 | 150 | 1.7 | 7.8 | 0.00 | 0.01 | 0.01 | 83 | 1013.9 |
| 20260905230008 | 80 | 261 | 1.7 | 7.0 | 0.00 | 0.01 | 0.01 | 82 | 1013.8 |
| 20260905224556 | 81 | 67 | 1.7 | 5.2 | 0.00 | 0.01 | 0.01 | 80 | 1013.6 |
| 20260905223046 | 82 | 89 | 1.7 | 4.3 | 0.00 | 0.01 | 0.01 | 79 | 1013.1 |
| 20260905221536 | 84 | 157 | 1.7 | 8.7 | 0.00 | 0.01 | 0.01 | 75 | 1013.0 |
| 20260905220023 | 84 | 67 | 1.7 | 5.2 | 0.00 | 0.01 | 0.01 | 74 | 1012.7 |
| 20260905214516 | 83 | 62 | 1.7 | 7.0 | 0.00 | 0.01 | 0.01 | 76 | 1012.7 |
| 20260905213009 | 84 | 198 | 1.7 | 9.6 | 0.00 | 0.01 | 0.01 | 75 | 1012.6 |
| 20260905211559 | 84 | 51 | 1.7 | 10.4 | 0.00 | 0.01 | 0.01 | 78 | 1012.6 |
| 20260905210059 | 83 | 348 | 3.5 | 9.6 | 0.00 | 0.01 | 0.01 | 78 | 1012.5 |
| 20260905204541 | 84 | 44 | 1.7 | 7.0 | 0.00 | 0.01 | 0.01 | 77 | 1012.5 |
| 20260905203034 | 85 | 329 | 3.5 | 8.7 | 0.00 | 0.01 | 0.01 | 75 | 1012.6 |
| 20260905201521 | 85 | 333 | 1.7 | 9.6 | 0.00 | 0.01 | 0.01 | 77 | 1012.6 |
| 20260905200012 | 84 | 1 | 1.7 | 5.2 | 0.00 | 0.01 | 0.01 | 79 | 1012.9 |
| 20260905194506 | 84 | 36 | 2.6 | 7.8 | 0.00 | 0.01 | 0.01 | 79 | 1012.9 |
| 20260905193051 | 84 | 121 | 0.9 | 5.2 | 0.00 | 0.01 | 0.01 | 77 | 1012.8 |
| 20260905191546 | 84 | 182 | 1.7 | 5.2 | 0.00 | 0.01 | 0.01 | 81 | 1013.0 |
| 20260905190040 | 84 | 6 | 1.7 | 4.3 | 0.00 | 0.01 | 0.01 | 79 | 1013.0 |
| 20260905184518 | 84 | 155 | 0.9 | 2.6 | 0.00 | 0.01 | 0.01 | 79 | 1013.1 |
| 20260905183015 | 85 | 243 | 0.9 | 3.5 | 0.00 | 0.01 | 0.01 | 78 | 1013.2 |
| 20260905181558 | 85 | 101 | 1.7 | 3.5 | 0.00 | 0.01 | 0.01 | 79 | 1013.2 |
| 20260905180111 | 84 | 140 | 0.9 | 2.6 | 0.00 | 0.04 | 0.01 | 80 | 1013.3 |
| 20260905174545 | 84 | 304 | 0.9 | 5.2 | 0.00 | 0.04 | 0.01 | 80 | 1013.4 |
| 20260905173035 | 83 | 211 | 1.7 | 3.5 | 0.00 | 0.04 | 0.01 | 83 | 1013.5 |
| 20260905171539 | 83 | 230 | 1.7 | 6.1 | 0.00 | 0.04 | 0.01 | 81 | 1013.6 |
| 20260905170014 | 83 | 196 | 2.6 | 5.2 | 0.00 | 0.04 | 0.01 | 82 | 1013.9 |
| 20260905164508 | 83 | 155 | 2.6 | 5.2 | 0.00 | 0.04 | 0.01 | 81 | 1014.0 |
| 20260905163055 | 82 | 194 | 2.6 | 6.1 | 0.00 | 0.04 | 0.01 | 84 | 1014.1 |
| 20260905161545 | 81 | 188 | 1.7 | 5.2 | 0.00 | 0.04 | 0.01 | 84 | 1014.2 |
| 20260905160048 | 80 | 193 | 0.9 | 3.5 | 0.00 | 0.04 | 0.01 | 86 | 1014.3 |
| 20260905154521 | 80 | 198 | 0.9 | 3.5 | 0.00 | 0.04 | 0.01 | 86 | 1014.2 |
| 20260905153019 | 79 | 165 | 0.9 | 3.5 | 0.00 | 0.04 | 0.01 | 85 | 1014.2 |
| 20260905151506 | 79 | 171 | 1.7 | 3.5 | 0.00 | 0.04 | 0.01 | 86 | 1014.1 |
| 20260905150052 | 77 | 170 | 1.7 | 3.5 | 0.00 | 0.04 | 0.01 | 89 | 1014.0 |
| 20260905144536 | 76 | 175 | 0.9 | 2.6 | 0.00 | 0.04 | 0.01 | 90 | 1014.3 |
| 20260905143029 | 75 | 175 | 0.9 | 2.6 | 0.00 | 0.04 | 0.01 | 91 | 1014.2 |
| 20260905141514 | 75 | 188 | 0.0 | 1.7 | 0.00 | 0.04 | 0.01 | 90 | 1014.1 |
| 20260905140007 | 74 | 189 | 0.0 | 0.9 | 0.00 | 0.04 | 0.01 | 92 | 1013.9 |
| 20260905134558 | 74 | 189 | 1.7 | 3.5 | 0.00 | 0.04 | 0.01 | 92 | 1013.9 |
| 20260905133047 | 74 | 191 | 0.9 | 2.6 | 0.00 | 0.04 | 0.01 | 93 | 1013.8 |
| 20260905131538 | 73 | 196 | 0.0 | 1.7 | 0.00 | 0.04 | 0.01 | 94 | 1013.7 |
| 20260905130019 | 73 | 196 | 0.9 | 2.6 | 0.00 | 0.04 | 0.01 | 95 | 1013.7 |
| 20260905124508 | 72 | 195 | 0.0 | 1.7 | 0.00 | 0.04 | 0.01 | 96 | 1013.4 |
| 20260905123005 | 71 | 198 | 0.0 | 2.6 | 0.00 | 0.04 | 0.01 | 96 | 1013.2 |
| 20260905121559 | 71 | 200 | 0.0 | 1.7 | 0.00 | 0.04 | 0.01 | 96 | 1013.1 |
| 20260905120100 | 71 | 200 | 0.0 | 0.9 | 0.00 | 0.04 | 0.01 | 96 | 1013.2 |
| 20260905114537 | 71 | 200 | 0.0 | 2.6 | 0.00 | 0.04 | 0.01 | 97 | 1013.2 |
| 20260905113030 | 71 | 201 | 0.0 | 0.0 | 0.00 | 0.04 | 0.01 | 97 | 1012.9 |
| 20260905111530 | 71 | 201 | 0.0 | 0.0 | 0.00 | 0.04 | 0.01 | 97 | 1012.7 |
| 20260905110020 | 70 | 201 | 0.0 | 1.7 | 0.00 | 0.04 | 0.01 | 97 | 1012.6 |
| 20260905104508 | 70 | 206 | 0.9 | 3.5 | 0.00 | 0.04 | 0.01 | 97 | 1012.5 |
| 20260905103101 | 70 | 188 | 0.0 | 0.9 | 0.00 | 0.04 | 0.01 | 96 | 1012.5 |
| 20260905101547 | 70 | 189 | 0.0 | 0.9 | 0.00 | 0.04 | 0.01 | 96 | 1012.4 |